Tracking 30995 objects as of 5-Jul-2025
HD Live streaming from Space Station
objects crossing your sky now

LEMUR 2 FURIAUS

Track LEMUR 2 FURIAUS now!
10-day predictions
LEMUR 2 FURIAUS is classified as:


NORAD ID: 42840
Int'l Code: 2017-042R
Perigee: 514.8 km
Apogee: 528.1 km
Inclination: 97.4 °
Period: 94.9 minutes
Semi major axis: 6892 km
RCS: Unknown
Launch date: July 14, 2017
Source: United States (US)
Launch site: TYURATAM MISSILE AND SPACE COMPLEX (TTMTR)
Your satellite tracking list
Your tracking list is empty




NASA's NSSDC Master Catalog

Two Line Element Set (TLE):
1 42840U 17042R   25186.45772223  .00009769  00000-0  49419-3 0  9997
2 42840  97.3678   6.2963 0009633 193.3260 166.7720 15.17189022435435
Source of the keplerian elements: AFSPC